Hourly Data Report for May 14, 2012

All times are specified in Local Standard Time (LST). Add 1 hour to adjust for Daylight Saving Time where and when it is observed.

PENTICTON A
BRITISH COLUMBIA

49°27'45.000" N
119°36'08.000" W
344.40 m
1126146
71889
YYF

Download Data

Hourly Data (May 2012)
Hourly Data Report for May 14, 2012
Temp Definition
°C
Dew Point Temp Definition
°C
Rel Hum Definition
%
Wind Dir Definition
10's deg

Wind Spd Definition
km/h
Visibility Definition
km
Stn Press Definition
kPa
Hmdx Definition


Wind Chill Definition


Weather Definition


TIME
00:00 Legend Double Dagger 11.9 3.2 55   0 10.0 97.83     LegendNANA
01:00 Legend Double Dagger 10.7 5.1 68   0 10.0 97.84     Clear
02:00 Legend Double Dagger 8.7 1.6 61 2 8 10.0 97.89     LegendNANA
03:00 Legend Double Dagger 8.0 2.1 66   0 10.0 97.94     LegendNANA
04:00 Legend Double Dagger 5.4 1.0 73 3 4 10.0 97.96     Clear
05:00 Legend Double Dagger 6.7 1.8 71 35 12 10.0 98.03     LegendNANA
06:00 Legend Double Dagger 12.0 3.6 56 0 10 10.0 98.07     LegendNANA
07:00 Legend Double Dagger 14.6 1.9 42 1 7 10.0 98.06     Mainly Clear
08:00 Legend Double Dagger 16.3 1.3 36 35 13 10.0 98.03     LegendNANA
09:00 Legend Double Dagger 17.3 1.4 34 36 14 10.0 97.97     LegendNANA
10:00 Legend Double Dagger 18.6 2.1 33 33 12 10.0 97.88     Mainly Clear
11:00 Legend Double Dagger 20.6 3.0 31 34 12 10.0 97.81     LegendNANA
12:00 Legend Double Dagger 22.1 2.9 28 35 11 10.0 97.69     LegendNANA
13:00 Legend Double Dagger 23.3 3.5 27 33 14 10.0 97.59     Mainly Clear
14:00 Legend Double Dagger 24.6 2.9 24 1 16 10.0 97.49     LegendNANA
15:00 Legend Double Dagger 26.1 5.9 27 35 12 10.0 97.37 26   LegendNANA
16:00 Legend Double Dagger 25.5 5.9 28 35 15 10.0 97.31 25   Mainly Clear
17:00 Legend Double Dagger 25.5 7.4 31 0 8 10.0 97.23 26   LegendNANA
18:00 Legend Double Dagger 24.2 8.4 36 35 6 10.0 97.18 25   LegendNANA
19:00 Legend Double Dagger 19.9 6.8 42 0 12 10.0 97.19     Mainly Clear
20:00 Legend Double Dagger 16.9 6.5 50 1 9 10.0 97.28     LegendNANA
21:00 Legend Double Dagger 16.5 7.0 53 33 5 10.0 97.36     LegendNANA
22:00 Legend Double Dagger 14.9 6.8 58   0 10.0 97.39     Mainly Clear
23:00 Legend Double Dagger 12.1 5.5 64 34 4 10.0 97.42     LegendNANA

Notes on Data Quality.

Legend

  • E = Estimated
  • M = Missing
  • NA = Not Available
  • ‡ = Partner data that is not subject to review by the National Climate Archives
Date modified: